Greenville, AL

10:56 AM CDT on June 27, 2017 (GMT -0500)
Greenville Municipal

Weather History for KPRN - August, 2012

Change the Weather History Date:

Tuesday, August 28, 2012

  Actual Average Record
Temperature  
Mean Temperature 83 °F -  
Max Temperature 91 °F 90 °F 102 °F (1954)
Min Temperature 75 °F 68 °F 62 °F (1952)
Cooling Degree Days 18    
Growing Degree Days 33 (Base 50)    
Moisture  
Dew Point 73 °F    
Average Humidity 80    
Maximum Humidity 94    
Minimum Humidity 50    
Precipitation  
Precipitation 0.03 in - - ()
Sea Level Pressure  
Sea Level Pressure 29.85 in    
Wind  
Wind Speed 10 mph (East)    
Max Wind Speed 17 mph    
Max Gust Speed 29 mph    
Visibility 10 miles    
Events Rain    
Averages and records for this station are not official NWS values.
T = Trace of Precipitation, MM = Missing Value Source: NWS Daily Summary

Daily Weather History Graph

Daily Weather History Graph

Search for Another Location

Airport or City:

Trip Planner

Search our weather history database for the weather conditions in past years. The results will help you decide how hot, cold, wet, or windy it might be!

Date:

Astronomy

Aug. 28, 2012 Rise Set
Actual Time 6:19 AM CDT 7:14 PM CDT
Civil Twilight 5:54 AM CDT 7:39 PM CDT
Nautical Twilight 5:25 AM CDT 8:09 PM CDT
Astronomical Twilight 4:54 AM CDT 8:39 PM CDT
Moon 5:11 PM CDT (8/28) 3:16 AM CDT (8/28)
Length of Visible Light 13h 44m
Length of Day
12h 54m
Waxing Gibbous, 90% of the Moon is Illuminated
Aug 28
Waxing Gibbous
Aug 31
Full
Sep 8
Last Quarter
Sep 15
New
Sep 22
First Quarter

Hourly Weather History & Observations

Time (CDT) Temp. Heat Index Dew Point Humidity Pressure Visibility Wind Dir Wind Speed Gust Speed Precip Events Conditions
12:56 AM 77.0 °F - 72.0 °F 84% 29.85 in 10.0 mi ENE 11.5 mph - N/A   Partly Cloudy
1:21 AM 77.0 °F - 72.0 °F 84% 29.86 in 10.0 mi ENE 10.4 mph - N/A   Mostly Cloudy
1:56 AM 77.0 °F - 72.0 °F 84% 29.83 in 10.0 mi ENE 9.2 mph - N/A   Overcast
2:56 AM 77.0 °F - 72.0 °F 84% 29.83 in 10.0 mi ENE 12.7 mph - N/A   Overcast
3:56 AM 75.9 °F - 72.0 °F 87% 29.82 in 10.0 mi NE 9.2 mph 17.3 mph N/A   Overcast
4:27 AM 75.9 °F - 73.0 °F 91% 29.84 in 7.0 mi ENE 10.4 mph - 0.00 in Rain Light Rain
4:56 AM 75.0 °F - 73.0 °F 94% 29.83 in 3.0 mi ENE 9.2 mph - 0.01 in Rain Rain
5:17 AM 75.0 °F - 73.0 °F 94% 29.85 in 10.0 mi ENE 9.2 mph - 0.01 in   Mostly Cloudy
5:27 AM 75.0 °F - 73.0 °F 94% 29.85 in 10.0 mi ENE 10.4 mph - 0.01 in   Scattered Clouds
5:56 AM 75.0 °F - 73.0 °F 94% 29.83 in 10.0 mi ENE 6.9 mph - 0.01 in   Clear
6:56 AM 75.0 °F - 73.0 °F 94% 29.85 in 10.0 mi ENE 9.2 mph - N/A   Partly Cloudy
7:18 AM 75.9 °F - 73.0 °F 91% 29.87 in 10.0 mi ENE 8.1 mph - N/A   Mostly Cloudy
7:26 AM 75.9 °F - 73.0 °F 91% 29.87 in 10.0 mi ENE 9.2 mph - N/A   Mostly Cloudy
7:49 AM 75.9 °F - 73.0 °F 91% 29.87 in 10.0 mi ENE 8.1 mph 17.3 mph N/A   Mostly Cloudy
7:56 AM 75.9 °F - 73.0 °F 91% 29.86 in 10.0 mi ENE 10.4 mph - N/A   Mostly Cloudy
8:14 AM 77.0 °F - 73.0 °F 88% 29.87 in 10.0 mi East 11.5 mph - N/A   Overcast
8:23 AM 77.0 °F - 73.0 °F 88% 29.87 in 10.0 mi East 10.4 mph - N/A   Mostly Cloudy
8:38 AM 77.0 °F - 73.9 °F 90% 29.88 in 9.0 mi East 5.8 mph - 0.00 in Rain Light Rain
8:56 AM 78.1 °F - 73.9 °F 87% 29.86 in 10.0 mi ENE 6.9 mph - 0.00 in   Mostly Cloudy
9:19 AM 78.1 °F - 73.9 °F 87% 29.88 in 10.0 mi East 10.4 mph - N/A   Mostly Cloudy
9:23 AM 78.1 °F - 73.9 °F 87% 29.88 in 10.0 mi East 8.1 mph - N/A   Scattered Clouds
9:31 AM 79.0 °F - 73.9 °F 84% 29.88 in 10.0 mi East 6.9 mph - N/A   Mostly Cloudy
9:46 AM 80.1 °F 84.5 °F 73.9 °F 81% 29.88 in 10.0 mi East 11.5 mph 16.1 mph N/A   Mostly Cloudy
9:56 AM 80.1 °F 84.5 °F 73.9 °F 81% 29.87 in 10.0 mi East 11.5 mph 18.4 mph N/A   Mostly Cloudy
10:10 AM 82.0 °F 88.6 °F 75.0 °F 79% 29.88 in 10.0 mi ENE 11.5 mph - N/A   Scattered Clouds
10:56 AM 84.9 °F 93.3 °F 75.0 °F 72% 29.87 in 10.0 mi ENE 11.5 mph - N/A   Clear
11:56 AM 87.1 °F 94.5 °F 73.0 °F 63% 29.86 in 10.0 mi ESE 16.1 mph 20.7 mph N/A   Clear
12:56 PM 89.1 °F 97.0 °F 73.0 °F 59% 29.84 in 10.0 mi SE 10.4 mph 20.7 mph N/A   Clear
1:56 PM 90.0 °F 96.9 °F 72.0 °F 55% 29.82 in 10.0 mi ESE 11.5 mph 21.9 mph 0.00 in Rain Light Rain
2:56 PM 91.0 °F 96.6 °F 70.0 °F 50% 29.80 in 10.0 mi ESE 17.3 mph 21.9 mph 0.00 in   Clear
3:56 PM 90.0 °F 95.4 °F 70.0 °F 52% 29.79 in 10.0 mi East 17.3 mph 28.8 mph N/A   Clear
4:56 PM 88.0 °F 93.8 °F 71.1 °F 57% 29.79 in 10.0 mi East 13.8 mph 19.6 mph N/A   Clear
5:56 PM 87.1 °F 93.6 °F 72.0 °F 61% 29.79 in 10.0 mi East 9.2 mph - N/A   Clear
6:56 PM 82.0 °F 87.4 °F 73.0 °F 74% 29.80 in 10.0 mi East 8.1 mph - 0.01 in   Clear
7:56 PM 80.1 °F 83.8 °F 72.0 °F 76% 29.84 in 10.0 mi ESE 6.9 mph - N/A   Clear
8:56 PM 80.1 °F 83.2 °F 70.0 °F 71% 29.85 in 10.0 mi ESE 10.4 mph - N/A   Clear
9:56 PM 79.0 °F - 70.0 °F 74% 29.85 in 10.0 mi ESE 9.2 mph - N/A   Clear
10:56 PM 80.1 °F 83.2 °F 70.0 °F 71% 29.83 in 10.0 mi East 10.4 mph 18.4 mph N/A   Clear
11:56 PM 79.0 °F - 71.1 °F 77% 29.84 in 10.0 mi ESE 10.4 mph - N/A   Clear